Погода в Козове

Украина / Тернопольская область     49°25′53″N   25°09′33″E
темп.,
°C
ветер,
м/с
пор.,
м/с
влажн.,
%
обл.,
%
осадки,
мм/ч
давл.,
гПа
погр.,
м
17 сентября, пт
пт1700:00+18ююв3857100 0.0 1013188
03:00+17ююв1284100 1.3 101222
06:00+16ююв259293 0.5 1010126
09:00+17ююз3682100 0.5 1009210
12:00+22зюз3465100 0.0 1008674
15:00+21юз4573100 2.3 1007399
18:00+17ю2493100 2.3 1006235
21:00+16з1296100 4.1 100579
18 сентября, сб
сб1800:00+15зсз71196100 2.3 1005590
03:00+13зсз81596100 3.3 1006807
06:00+13зсз81494100 0.1 1007731
09:00+13зсз81393100 0.2 1008636
12:00+13з71187100 0.0 1008879
15:00+14зсз7118529 0.3 1009857
18:00+14зсз6108419 0.9 1009893
21:00+11з5129425 1.1 1009528
19 сентября, вс
вс1900:00+11з6119593 0.6 1009683
03:00+9сз5695100 1.6 1009453
06:00+6зсз61194100 3.2 1010842
09:00+5зсз71196100 4.4 1011884
12:00+6зсз71092100 0.3 10111015
15:00+6зсз61091100 0.6 10121127
18:00+6зсз61194100 0.4 10121200
21:00+5зсз61096100 1.1 1013903
20 сентября, пн
пн2000:00+4зсз71197100 1.1 1013747
03:00+5зсз61097100 1.1 1013854
06:00+5зсз61096100 0.1 1014713
09:00+5зсз61095100 0.1 1015712
12:00+5зсз5994100 0.0 1017784
15:00+6зсз5992100 0.0 1017776
18:00+6зсз5889100 0.0 1017671
21:00+5зсз4889100 0.1 1019591
21 сентября, вт
вт2100:00+5зсз4889100 0.0 1019616
03:00+5зсз4989100 0.0 1019619
06:00+5з41183100 0.0 1019488
09:00+6з61172100 0.0 1019792
12:00+7зсз81481100 0.1 10191306
15:00+6зсз71281100 0.2 10201168
18:00+6зсз61177100 0.0 10211037
21:00+6зсз51080100 0.0 1021924